Location: Newark
(12.5331°N, 56.4669°W)
Time: 11:35:17
(UTC+00:00)

Envisat - Pass Details

Date: 30 January 2020
Orbit: 764 x 766 km, 98.1° (Epoch: 23 February)

Event Time Altitude Azimuth Distance (km) Brightness Sun altitude
Rises 22:33:10 0° 189° (S) 3,219 6.6 -11.7°
Reaches altitude 10° 22:35:44 10° 200° (SSW) 2,293 6.0 -12.3°
Maximum altitude 22:40:06 30° 260° (W) 1,352 5.1 -13.4°
Drops below altitude 10° 22:44:29 10° 320° (NW) 2,294 5.8 -14.4°
Sets 22:47:03 0° 331° (NNW) 3,220 6.4 -15.0°
